contact:dominique.lefevre@mio.osupytheas.fr, maurice.libes@osupytheas.fr, didier.mallarino@osupytheas.fr
Project:EMSO http://www.emso-fr.org/EMSO-France
Depth: 2436.0 m
Title:EMSO Ligure Ouest : Data MII capteur OXYGEN
DateTime,Latitude,Longitude,Optode-Type,Optode_Serial,Oxygen,Saturation_Oxygen,Temperature
DateTime,Latitude,Longitude,Optode-Type,Optode_Serial,µmol.l-1,%,degC
2017-10-23T00:01:41,42.805,6.029,4330,1995,193.190,59.080,13.288
2017-10-23T00:04:41,42.805,6.029,4330,1995,193.072,59.044,13.288
2017-10-23T00:07:41,42.805,6.029,4330,1995,192.715,58.936,13.289
2017-10-23T00:10:41,42.805,6.029,4330,1995,192.942,59.005,13.288
2017-10-23T00:13:41,42.805,6.029,4330,1995,193.360,59.133,13.289
2017-10-23T00:16:41,42.805,6.029,4330,1995,193.520,59.181,13.288
2017-10-23T00:19:41,42.805,6.029,4330,1995,193.732,59.247,13.289
2017-10-23T00:22:41,42.805,6.029,4330,1995,193.207,59.087,13.289
2017-10-23T00:25:41,42.805,6.029,4330,1995,192.938,59.006,13.290
2017-10-23T00:28:41,42.805,6.029,4330,1995,193.194,59.085,13.291
2017-10-23T00:31:41,42.805,6.029,4330,1995,192.969,59.014,13.289
2017-10-23T00:34:41,42.805,6.029,4330,1995,192.883,58.987,13.288
2017-10-23T00:37:41,42.805,6.029,4330,1995,193.696,59.235,13.288
2017-10-23T00:40:41,42.805,6.029,4330,1995,193.896,59.296,13.288
2017-10-23T00:43:41,42.805,6.029,4330,1995,193.235,59.093,13.288
2017-10-23T00:46:41,42.805,6.029,4330,1995,193.608,59.207,13.287
2017-10-23T00:49:41,42.805,6.029,4330,1995,193.857,59.285,13.289
2017-10-23T00:52:41,42.805,6.029,4330,1995,193.974,59.323,13.290
2017-10-23T00:55:41,42.805,6.029,4330,1995,194.352,59.437,13.289
2017-10-23T00:58:41,42.805,6.029,4330,1995,194.547,59.494,13.287
2017-10-23T01:01:41,42.805,6.029,4330,1995,195.009,59.635,13.287
2017-10-23T01:04:41,42.805,6.029,4330,1995,194.757,59.562,13.290
2017-10-23T01:07:41,42.805,6.029,4330,1995,194.983,59.628,13.288
2017-10-23T01:10:41,42.805,6.029,4330,1995,195.355,59.741,13.287
2017-10-23T01:13:41,42.805,6.029,4330,1995,195.338,59.738,13.288
2017-10-23T01:16:41,42.805,6.029,4330,1995,194.924,59.610,13.287
2017-10-23T01:19:41,42.805,6.029,4330,1995,194.859,59.594,13.290
2017-10-23T01:22:41,42.805,6.029,4330,1995,194.666,59.533,13.289
2017-10-23T01:25:41,42.805,6.029,4330,1995,195.095,59.664,13.289
2017-10-23T01:28:41,42.805,6.029,4330,1995,194.752,59.556,13.287
2017-10-23T01:31:41,42.805,6.029,4330,1995,194.842,59.584,13.287
2017-10-23T01:34:41,42.805,6.029,4330,1995,195.289,59.724,13.290
2017-10-23T01:37:41,42.805,6.029,4330,1995,195.166,59.684,13.288
2017-10-23T01:40:41,42.805,6.029,4330,1995,195.596,59.817,13.289
2017-10-23T01:43:41,42.805,6.029,4330,1995,195.358,59.743,13.288
2017-10-23T01:46:41,42.805,6.029,4330,1995,194.905,59.605,13.289
2017-10-23T01:49:41,42.805,6.029,4330,1995,193.955,59.314,13.288
2017-10-23T01:52:41,42.805,6.029,4330,1995,194.461,59.469,13.288
2017-10-23T01:55:41,42.805,6.029,4330,1995,194.929,59.611,13.288
2017-10-23T01:58:41,42.805,6.029,4330,1995,195.305,59.729,13.289
2017-10-23T02:01:41,42.805,6.029,4330,1995,195.458,59.774,13.288
2017-10-23T02:04:41,42.805,6.029,4330,1995,195.347,59.742,13.289
2017-10-23T02:07:41,42.805,6.029,4330,1995,194.391,59.451,13.291
2017-10-23T02:10:41,42.805,6.029,4330,1995,194.801,59.575,13.290
2017-10-23T02:13:41,42.805,6.029,4330,1995,195.051,59.650,13.288
2017-10-23T02:16:41,42.805,6.029,4330,1995,194.476,59.475,13.289
2017-10-23T02:19:41,42.805,6.029,4330,1995,195.061,59.653,13.288
2017-10-23T02:22:41,42.805,6.029,4330,1995,194.935,59.616,13.290
2017-10-23T02:25:41,42.805,6.029,4330,1995,193.849,59.284,13.290
2017-10-23T02:28:41,42.805,6.029,4330,1995,193.136,59.067,13.290
2017-10-23T02:31:41,42.805,6.029,4330,1995,193.100,59.054,13.289
2017-10-23T02:34:41,42.805,6.029,4330,1995,192.990,59.021,13.290
2017-10-23T02:37:41,42.805,6.029,4330,1995,193.034,59.034,13.289
2017-10-23T02:40:41,42.805,6.029,4330,1995,193.688,59.234,13.290
2017-10-23T02:43:41,42.805,6.029,4330,1995,193.748,59.252,13.289
2017-10-23T02:46:41,42.805,6.029,4330,1995,193.679,59.233,13.290
2017-10-23T02:49:41,42.805,6.029,4330,1995,193.350,59.132,13.290
2017-10-23T02:52:41,42.805,6.029,4330,1995,194.404,59.451,13.288
2017-10-23T02:55:41,42.805,6.029,4330,1995,195.252,59.711,13.288
2017-10-23T02:58:41,42.805,6.029,4330,1995,195.725,59.855,13.288
2017-10-23T03:01:41,42.805,6.029,4330,1995,195.247,59.709,13.288
2017-10-23T03:04:41,42.805,6.029,4330,1995,194.649,59.526,13.288
2017-10-23T03:07:41,42.805,6.029,4330,1995,195.087,59.660,13.288
2017-10-23T03:10:41,42.805,6.029,4330,1995,195.238,59.706,13.287
2017-10-23T03:13:41,42.805,6.029,4330,1995,194.516,59.486,13.288
2017-10-23T03:16:41,42.805,6.029,4330,1995,194.170,59.381,13.289
2017-10-23T03:19:41,42.805,6.029,4330,1995,193.821,59.274,13.289
2017-10-23T03:22:41,42.805,6.029,4330,1995,194.147,59.374,13.289
2017-10-23T03:25:41,42.805,6.029,4330,1995,194.089,59.359,13.291
2017-10-23T03:28:41,42.805,6.029,4330,1995,193.299,59.118,13.291
2017-10-23T03:31:41,42.805,6.029,4330,1995,192.462,58.862,13.291
2017-10-23T03:34:41,42.805,6.029,4330,1995,192.403,58.845,13.292
2017-10-23T03:37:41,42.805,6.029,4330,1995,192.072,58.745,13.293
2017-10-23T03:40:41,42.805,6.029,4330,1995,192.263,58.802,13.292
2017-10-23T03:43:41,42.805,6.029,4330,1995,192.300,58.814,13.293
2017-10-23T03:46:41,42.805,6.029,4330,1995,192.219,58.786,13.290
2017-10-23T03:49:41,42.805,6.029,4330,1995,192.415,58.846,13.290
2017-10-23T03:52:41,42.805,6.029,4330,1995,192.378,58.836,13.291
2017-10-23T03:55:41,42.805,6.029,4330,1995,191.990,58.718,13.292
2017-10-23T03:58:41,42.805,6.029,4330,1995,191.831,58.669,13.291
2017-10-23T04:01:41,42.805,6.029,4330,1995,191.540,58.581,13.292
2017-10-23T04:04:41,42.805,6.029,4330,1995,191.334,58.515,13.290
2017-10-23T04:07:41,42.805,6.029,4330,1995,191.190,58.473,13.291
2017-10-23T04:10:41,42.805,6.029,4330,1995,191.517,58.573,13.291
2017-10-23T04:13:41,42.805,6.029,4330,1995,191.411,58.539,13.290
2017-10-23T04:16:41,42.805,6.029,4330,1995,191.853,58.674,13.290
2017-10-23T04:19:41,42.805,6.029,4330,1995,192.007,58.723,13.291
2017-10-23T04:22:41,42.805,6.029,4330,1995,191.843,58.672,13.290
2017-10-23T04:25:41,42.805,6.029,4330,1995,192.039,58.731,13.290
2017-10-23T04:28:41,42.805,6.029,4330,1995,192.488,58.868,13.290
2017-10-23T04:31:41,42.805,6.029,4330,1995,192.231,58.789,13.289
2017-10-23T04:34:41,42.805,6.029,4330,1995,191.915,58.692,13.289
2017-10-23T04:37:41,42.805,6.029,4330,1995,191.809,58.661,13.290
2017-10-23T04:40:41,42.805,6.029,4330,1995,192.026,58.727,13.290
2017-10-23T04:43:41,42.805,6.029,4330,1995,192.198,58.780,13.290
2017-10-23T04:46:41,42.805,6.029,4330,1995,192.456,58.858,13.290
2017-10-23T04:49:41,42.805,6.029,4330,1995,192.264,58.801,13.291
2017-10-23T04:52:41,42.805,6.029,4330,1995,192.135,58.761,13.291
2017-10-23T04:55:41,42.805,6.029,4330,1995,191.861,58.678,13.291
2017-10-23T04:58:41,42.805,6.029,4330,1995,191.229,58.487,13.293
2017-10-23T05:01:41,42.805,6.029,4330,1995,191.096,58.446,13.293
2017-10-23T05:04:41,42.805,6.029,4330,1995,191.068,58.438,13.293
2017-10-23T05:07:41,42.805,6.029,4330,1995,190.982,58.410,13.292
2017-10-23T05:10:41,42.805,6.029,4330,1995,190.630,58.304,13.293
2017-10-23T05:13:41,42.805,6.029,4330,1995,190.324,58.211,13.294
2017-10-23T05:16:41,42.805,6.029,4330,1995,190.310,58.206,13.293
2017-10-23T05:19:41,42.805,6.029,4330,1995,189.880,58.074,13.293
2017-10-23T05:22:41,42.805,6.029,4330,1995,190.118,58.147,13.293
2017-10-23T05:25:41,42.805,6.029,4330,1995,190.506,58.265,13.293
2017-10-23T05:28:41,42.805,6.029,4330,1995,190.819,58.359,13.291
2017-10-23T05:31:41,42.805,6.029,4330,1995,191.356,58.525,13.292
2017-10-23T05:34:41,42.805,6.029,4330,1995,191.282,58.501,13.292
2017-10-23T05:37:41,42.805,6.029,4330,1995,191.115,58.451,13.292
2017-10-23T05:40:41,42.805,6.029,4330,1995,191.380,58.531,13.292
2017-10-23T05:43:41,42.805,6.029,4330,1995,190.749,58.338,13.292
2017-10-23T05:46:41,42.805,6.029,4330,1995,190.212,58.173,13.291
2017-10-23T05:49:41,42.805,6.029,4330,1995,190.544,58.276,13.292
2017-10-23T05:52:41,42.805,6.029,4330,1995,191.198,58.475,13.291
2017-10-23T05:55:41,42.805,6.029,4330,1995,191.731,58.637,13.291
2017-10-23T05:58:41,42.805,6.029,4330,1995,191.895,58.688,13.291
2017-10-23T06:01:41,42.805,6.029,4330,1995,191.843,58.673,13.291
2017-10-23T06:04:41,42.805,6.029,4330,1995,191.693,58.628,13.292
2017-10-23T06:07:41,42.805,6.029,4330,1995,191.641,58.612,13.293
2017-10-23T06:10:41,42.805,6.029,4330,1995,191.606,58.602,13.292
2017-10-23T06:13:41,42.805,6.029,4330,1995,191.277,58.502,13.293
2017-10-23T06:16:41,42.805,6.029,4330,1995,190.910,58.388,13.292
2017-10-23T06:19:41,42.805,6.029,4330,1995,190.900,58.385,13.292
2017-10-23T06:22:41,42.805,6.029,4330,1995,191.071,58.438,13.292
2017-10-23T06:25:41,42.805,6.029,4330,1995,191.159,58.464,13.292
2017-10-23T06:28:41,42.805,6.029,4330,1995,191.152,58.461,13.291
2017-10-23T06:31:41,42.805,6.029,4330,1995,191.302,58.506,13.291
2017-10-23T06:34:41,42.805,6.029,4330,1995,191.097,58.445,13.292
2017-10-23T06:37:41,42.805,6.029,4330,1995,191.334,58.517,13.292
2017-10-23T06:40:41,42.805,6.029,4330,1995,191.222,58.483,13.291
2017-10-23T06:43:41,42.805,6.029,4330,1995,191.263,58.496,13.292
2017-10-23T06:46:41,42.805,6.029,4330,1995,191.267,58.497,13.292
2017-10-23T06:49:41,42.805,6.029,4330,1995,191.174,58.467,13.290
2017-10-23T06:52:41,42.805,6.029,4330,1995,191.046,58.427,13.290
2017-10-23T06:55:41,42.805,6.029,4330,1995,191.204,58.476,13.290
2017-10-23T06:58:41,42.805,6.029,4330,1995,191.382,58.529,13.289
2017-10-23T07:01:41,42.805,6.029,4330,1995,192.603,58.903,13.290
2017-10-23T07:04:41,42.805,6.029,4330,1995,192.905,58.994,13.289
2017-10-23T07:07:41,42.805,6.029,4330,1995,192.876,58.984,13.288
2017-10-23T07:10:41,42.805,6.029,4330,1995,192.824,58.968,13.288
2017-10-23T07:13:41,42.805,6.029,4330,1995,192.513,58.873,13.288
2017-10-23T07:16:41,42.805,6.029,4330,1995,192.140,58.759,13.288
2017-10-23T07:19:41,42.805,6.029,4330,1995,191.952,58.701,13.288
2017-10-23T07:22:41,42.805,6.029,4330,1995,192.330,58.817,13.287
2017-10-23T07:25:41,42.805,6.029,4330,1995,192.480,58.863,13.288
2017-10-23T07:28:41,42.805,6.029,4330,1995,192.300,58.815,13.293
2017-10-23T07:31:41,42.805,6.029,4330,1995,192.343,58.822,13.288
2017-10-23T07:34:41,42.805,6.029,4330,1995,192.521,58.877,13.289
2017-10-23T07:37:41,42.805,6.029,4330,1995,192.958,59.010,13.289
2017-10-23T07:40:41,42.805,6.029,4330,1995,193.354,59.130,13.288
2017-10-23T07:43:41,42.805,6.029,4330,1995,193.326,59.127,13.292
2017-10-23T07:46:41,42.805,6.029,4330,1995,193.456,59.164,13.290
2017-10-23T07:49:41,42.805,6.029,4330,1995,193.311,59.121,13.291
2017-10-23T07:52:41,42.805,6.029,4330,1995,193.500,59.173,13.287
2017-10-23T07:55:41,42.805,6.029,4330,1995,193.884,59.291,13.287
2017-10-23T07:58:41,42.805,6.029,4330,1995,193.799,59.265,13.287
2017-10-23T08:01:41,42.805,6.029,4330,1995,193.975,59.318,13.287
2017-10-23T08:04:41,42.805,6.029,4330,1995,193.657,59.221,13.287
2017-10-23T08:07:41,42.805,6.029,4330,1995,193.522,59.181,13.287
2017-10-23T08:10:41,42.805,6.029,4330,1995,193.896,59.295,13.287
2017-10-23T08:13:41,42.805,6.029,4330,1995,194.066,59.347,13.287
2017-10-23T08:16:41,42.805,6.029,4330,1995,193.875,59.288,13.287
2017-10-23T08:19:41,42.805,6.029,4330,1995,193.820,59.271,13.286
2017-10-23T08:22:41,42.805,6.029,4330,1995,193.784,59.260,13.287
2017-10-23T08:25:41,42.805,6.029,4330,1995,193.728,59.243,13.287
2017-10-23T08:28:41,42.805,6.029,4330,1995,193.602,59.205,13.287
2017-10-23T08:31:41,42.805,6.029,4330,1995,193.664,59.224,13.287
2017-10-23T08:34:41,42.805,6.029,4330,1995,194.415,59.454,13.287
2017-10-23T08:37:41,42.805,6.029,4330,1995,194.220,59.394,13.287
2017-10-23T08:40:41,42.805,6.029,4330,1995,194.208,59.390,13.287
2017-10-23T08:43:41,42.805,6.029,4330,1995,194.642,59.523,13.287
2017-10-23T08:46:41,42.805,6.029,4330,1995,194.864,59.591,13.287
2017-10-23T08:49:41,42.805,6.029,4330,1995,195.047,59.646,13.287
2017-10-23T08:52:41,42.805,6.029,4330,1995,195.146,59.677,13.287
2017-10-23T08:55:41,42.805,6.029,4330,1995,194.910,59.605,13.287
2017-10-23T08:58:41,42.805,6.029,4330,1995,195.090,59.659,13.286
2017-10-23T09:01:41,42.805,6.029,4330,1995,195.370,59.745,13.287
2017-10-23T09:04:41,42.805,6.029,4330,1995,195.405,59.756,13.287
2017-10-23T09:07:41,42.805,6.029,4330,1995,195.451,59.770,13.286
2017-10-23T09:10:41,42.805,6.029,4330,1995,195.382,59.749,13.287
2017-10-23T09:13:41,42.805,6.029,4330,1995,195.047,59.646,13.287
2017-10-23T09:16:41,42.805,6.029,4330,1995,195.326,59.732,13.287
2017-10-23T09:19:41,42.805,6.029,4330,1995,195.291,59.721,13.286
2017-10-23T09:22:41,42.805,6.029,4330,1995,195.428,59.763,13.286
2017-10-23T09:25:41,42.805,6.029,4330,1995,195.441,59.766,13.286
2017-10-23T09:28:41,42.805,6.029,4330,1995,195.732,59.855,13.286
2017-10-23T09:31:41,42.805,6.029,4330,1995,195.741,59.858,13.286
2017-10-23T09:34:41,42.805,6.029,4330,1995,195.539,59.796,13.286
2017-10-23T09:37:40,42.805,6.029,4330,1995,195.522,59.791,13.286
2017-10-23T09:40:40,42.805,6.029,4330,1995,195.492,59.782,13.286
2017-10-23T09:43:40,42.805,6.029,4330,1995,195.004,59.633,13.286
2017-10-23T09:46:40,42.805,6.029,4330,1995,195.097,59.661,13.286
2017-10-23T09:49:40,42.805,6.029,4330,1995,194.953,59.617,13.287
2017-10-23T09:52:40,42.805,6.029,4330,1995,194.527,59.487,13.287
2017-10-23T09:55:40,42.805,6.029,4330,1995,194.301,59.419,13.287
2017-10-23T09:58:40,42.805,6.029,4330,1995,194.336,59.429,13.286
2017-10-23T10:01:40,42.805,6.029,4330,1995,194.438,59.460,13.287
2017-10-23T10:04:40,42.805,6.029,4330,1995,194.293,59.416,13.287
2017-10-23T10:07:40,42.805,6.029,4330,1995,194.141,59.370,13.287
2017-10-23T10:10:40,42.805,6.029,4330,1995,194.101,59.357,13.287
2017-10-23T10:13:40,42.805,6.029,4330,1995,194.142,59.370,13.287
2017-10-23T10:16:40,42.805,6.029,4330,1995,194.157,59.374,13.287
2017-10-23T10:19:40,42.805,6.029,4330,1995,194.151,59.372,13.287
2017-10-23T10:22:40,42.805,6.029,4330,1995,194.056,59.344,13.287
2017-10-23T10:25:40,42.805,6.029,4330,1995,194.137,59.368,13.287
2017-10-23T10:28:40,42.805,6.029,4330,1995,194.340,59.430,13.286
2017-10-23T10:31:40,42.805,6.029,4330,1995,194.177,59.381,13.287
2017-10-23T10:34:40,42.805,6.029,4330,1995,194.361,59.438,13.288
2017-10-23T10:37:40,42.805,6.029,4330,1995,194.693,59.539,13.287
2017-10-23T10:40:40,42.805,6.029,4330,1995,194.352,59.434,13.287
2017-10-23T10:43:40,42.805,6.029,4330,1995,194.149,59.372,13.287
2017-10-23T10:46:40,42.805,6.029,4330,1995,193.898,59.295,13.287
2017-10-23T10:49:40,42.805,6.029,4330,1995,193.765,59.255,13.287
2017-10-23T10:52:40,42.805,6.029,4330,1995,193.608,59.206,13.287
2017-10-23T10:55:40,42.805,6.029,4330,1995,193.564,59.193,13.287
2017-10-23T10:58:40,42.805,6.029,4330,1995,193.468,59.164,13.287
2017-10-23T11:01:40,42.805,6.029,4330,1995,193.378,59.137,13.287
2017-10-23T11:04:40,42.805,6.029,4330,1995,193.292,59.110,13.287
2017-10-23T11:07:40,42.805,6.029,4330,1995,193.024,59.028,13.287
2017-10-23T11:10:40,42.805,6.029,4330,1995,193.201,59.083,13.288
2017-10-23T11:13:40,42.805,6.029,4330,1995,193.019,59.028,13.288
2017-10-23T11:16:40,42.805,6.029,4330,1995,193.236,59.094,13.288
2017-10-23T11:19:40,42.805,6.029,4330,1995,193.110,59.055,13.287
2017-10-23T11:22:40,42.805,6.029,4330,1995,192.985,59.017,13.287
2017-10-23T11:25:40,42.805,6.029,4330,1995,192.868,58.981,13.287
2017-10-23T11:28:40,42.805,6.029,4330,1995,193.389,59.140,13.287
2017-10-23T11:31:40,42.805,6.029,4330,1995,193.744,59.249,13.288
2017-10-23T11:34:40,42.805,6.029,4330,1995,193.634,59.215,13.288
2017-10-23T11:37:40,42.805,6.029,4330,1995,193.692,59.233,13.287
2017-10-23T11:40:40,42.805,6.029,4330,1995,194.028,59.335,13.287
2017-10-23T11:43:40,42.805,6.029,4330,1995,194.331,59.428,13.287
2017-10-23T11:46:40,42.805,6.029,4330,1995,194.624,59.518,13.287
2017-10-23T11:49:40,42.805,6.029,4330,1995,194.766,59.562,13.288
2017-10-23T11:52:40,42.805,6.029,4330,1995,194.420,59.456,13.288
2017-10-23T11:55:40,42.805,6.029,4330,1995,194.208,59.393,13.289
2017-10-23T11:58:40,42.805,6.029,4330,1995,193.628,59.215,13.289
2017-10-23T12:01:40,42.805,6.029,4330,1995,193.381,59.140,13.289
2017-10-23T12:04:40,42.805,6.029,4330,1995,192.543,58.889,13.293
2017-10-23T12:07:40,42.805,6.029,4330,1995,191.793,58.658,13.292
2017-10-23T12:10:40,42.805,6.029,4330,1995,191.817,58.666,13.292
2017-10-23T12:13:40,42.805,6.029,4330,1995,191.193,58.479,13.295
2017-10-23T12:16:40,42.805,6.029,4330,1995,191.331,58.516,13.291
2017-10-23T12:19:40,42.805,6.029,4330,1995,192.010,58.723,13.291
2017-10-23T12:22:40,42.805,6.029,4330,1995,192.090,58.746,13.290
2017-10-23T12:25:40,42.805,6.029,4330,1995,191.699,58.630,13.292
2017-10-23T12:28:40,42.805,6.029,4330,1995,191.357,58.523,13.291
2017-10-23T12:31:40,42.805,6.029,4330,1995,190.997,58.412,13.290
2017-10-23T12:34:40,42.805,6.029,4330,1995,191.764,58.646,13.290
2017-10-23T12:37:40,42.805,6.029,4330,1995,193.059,59.043,13.290
2017-10-23T12:40:40,42.805,6.029,4330,1995,192.686,58.930,13.291
2017-10-23T12:43:40,42.805,6.029,4330,1995,192.328,58.821,13.291
2017-10-23T12:46:40,42.805,6.029,4330,1995,191.656,58.614,13.290
2017-10-23T12:49:40,42.805,6.029,4330,1995,192.004,58.718,13.289
2017-10-23T12:52:40,42.805,6.029,4330,1995,193.472,59.167,13.288
2017-10-23T12:55:40,42.805,6.029,4330,1995,193.836,59.279,13.289
2017-10-23T12:58:40,42.805,6.029,4330,1995,194.099,59.358,13.288
2017-10-23T13:01:40,42.805,6.029,4330,1995,194.383,59.445,13.288
2017-10-23T13:04:40,42.805,6.029,4330,1995,194.627,59.520,13.288
2017-10-23T13:07:40,42.805,6.029,4330,1995,194.628,59.520,13.288
2017-10-23T13:10:40,42.805,6.029,4330,1995,194.242,59.406,13.291
2017-10-23T13:13:40,42.805,6.029,4330,1995,194.234,59.399,13.288
2017-10-23T13:16:40,42.805,6.029,4330,1995,194.408,59.454,13.289
2017-10-23T13:19:40,42.805,6.029,4330,1995,194.373,59.443,13.289
2017-10-23T13:22:40,42.805,6.029,4330,1995,194.320,59.428,13.290
2017-10-23T13:25:40,42.805,6.029,4330,1995,194.054,59.348,13.291
2017-10-23T13:28:40,42.805,6.029,4330,1995,193.906,59.300,13.289
2017-10-23T13:31:40,42.805,6.029,4330,1995,193.662,59.225,13.289
2017-10-23T13:34:40,42.805,6.029,4330,1995,193.801,59.270,13.290
2017-10-23T13:37:40,42.805,6.029,4330,1995,193.480,59.170,13.289
2017-10-23T13:40:40,42.805,6.029,4330,1995,193.937,59.310,13.289
2017-10-23T13:43:40,42.805,6.029,4330,1995,194.188,59.387,13.289
2017-10-23T13:46:40,42.805,6.029,4330,1995,194.077,59.352,13.288
2017-10-23T13:49:40,42.805,6.029,4330,1995,194.123,59.366,13.288
2017-10-23T13:52:40,42.805,6.029,4330,1995,194.427,59.460,13.289
2017-10-23T13:55:40,42.805,6.029,4330,1995,193.518,59.183,13.290
2017-10-23T13:58:40,42.805,6.029,4330,1995,193.261,59.103,13.289
2017-10-23T14:01:40,42.805,6.029,4330,1995,193.081,59.052,13.292
2017-10-23T14:04:40,42.805,6.029,4330,1995,192.340,58.826,13.293
2017-10-23T14:07:40,42.805,6.029,4330,1995,192.600,58.901,13.289
2017-10-23T14:10:40,42.805,6.029,4330,1995,193.562,59.195,13.288
2017-10-23T14:13:40,42.805,6.029,4330,1995,194.038,59.342,13.290
2017-10-23T14:16:40,42.805,6.029,4330,1995,194.381,59.444,13.288
2017-10-23T14:19:40,42.805,6.029,4330,1995,194.576,59.504,13.288
2017-10-23T14:22:40,42.805,6.029,4330,1995,194.659,59.530,13.288
2017-10-23T14:25:40,42.805,6.029,4330,1995,194.935,59.614,13.288
2017-10-23T14:28:40,42.805,6.029,4330,1995,194.947,59.618,13.288
2017-10-23T14:31:40,42.805,6.029,4330,1995,194.758,59.560,13.288
2017-10-23T14:34:40,42.805,6.029,4330,1995,194.537,59.494,13.289
2017-10-23T14:37:40,42.805,6.029,4330,1995,194.505,59.485,13.290
2017-10-23T14:40:40,42.805,6.029,4330,1995,194.335,59.432,13.289
2017-10-23T14:43:40,42.805,6.029,4330,1995,194.403,59.454,13.290
2017-10-23T14:46:40,42.805,6.029,4330,1995,193.805,59.269,13.289
2017-10-23T14:49:40,42.805,6.029,4330,1995,193.302,59.117,13.290
2017-10-23T14:52:40,42.805,6.029,4330,1995,193.350,59.131,13.289
2017-10-23T14:55:40,42.805,6.029,4330,1995,193.597,59.205,13.289
2017-10-23T14:58:40,42.805,6.029,4330,1995,194.007,59.331,13.289
2017-10-23T15:01:40,42.805,6.029,4330,1995,194.127,59.369,13.290
2017-10-23T15:04:40,42.805,6.029,4330,1995,193.867,59.289,13.290
2017-10-23T15:07:40,42.805,6.029,4330,1995,193.757,59.256,13.290
2017-10-23T15:10:40,42.805,6.029,4330,1995,193.502,59.179,13.290
2017-10-23T15:13:40,42.805,6.029,4330,1995,192.773,58.957,13.291
2017-10-23T15:16:40,42.805,6.029,4330,1995,192.311,58.815,13.291
2017-10-23T15:19:40,42.805,6.029,4330,1995,192.084,58.744,13.289
2017-10-23T15:22:40,42.805,6.029,4330,1995,192.163,58.768,13.289
2017-10-23T15:25:40,42.805,6.029,4330,1995,192.045,58.733,13.290
2017-10-23T15:28:40,42.805,6.029,4330,1995,192.349,58.826,13.290
2017-10-23T15:31:40,42.805,6.029,4330,1995,192.313,58.815,13.290
2017-10-23T15:34:40,42.805,6.029,4330,1995,192.526,58.879,13.290
2017-10-23T15:37:40,42.805,6.029,4330,1995,192.834,58.973,13.289
2017-10-23T15:40:40,42.805,6.029,4330,1995,192.962,59.013,13.290
2017-10-23T15:43:40,42.805,6.029,4330,1995,193.094,59.053,13.290
2017-10-23T15:46:40,42.805,6.029,4330,1995,192.480,58.867,13.291
2017-10-23T15:49:40,42.805,6.029,4330,1995,192.229,58.789,13.290
2017-10-23T15:52:40,42.805,6.029,4330,1995,192.312,58.815,13.291
2017-10-23T15:55:40,42.805,6.029,4330,1995,192.452,58.858,13.291
2017-10-23T15:58:40,42.805,6.029,4330,1995,192.374,58.834,13.291
2017-10-23T16:01:40,42.805,6.029,4330,1995,191.948,58.705,13.292
2017-10-23T16:04:40,42.805,6.029,4330,1995,191.712,58.633,13.292
2017-10-23T16:07:40,42.805,6.029,4330,1995,191.344,58.522,13.293
2017-10-23T16:10:40,42.805,6.029,4330,1995,191.041,58.426,13.290
2017-10-23T16:13:40,42.805,6.029,4330,1995,191.828,58.666,13.290
2017-10-23T16:16:40,42.805,6.029,4330,1995,192.143,58.763,13.291
2017-10-23T16:19:40,42.805,6.029,4330,1995,192.021,58.728,13.292
2017-10-23T16:22:40,42.805,6.029,4330,1995,191.425,58.545,13.292
2017-10-23T16:25:40,42.805,6.029,4330,1995,191.134,58.455,13.291
2017-10-23T16:28:40,42.805,6.029,4330,1995,191.239,58.488,13.291
2017-10-23T16:31:40,42.805,6.029,4330,1995,191.520,58.573,13.290
2017-10-23T16:34:40,42.805,6.029,4330,1995,191.389,58.534,13.292
2017-10-23T16:37:40,42.805,6.029,4330,1995,191.140,58.460,13.293
2017-10-23T16:40:40,42.805,6.029,4330,1995,190.907,58.390,13.294
2017-10-23T16:43:40,42.805,6.029,4330,1995,190.710,58.330,13.294
2017-10-23T16:46:40,42.805,6.029,4330,1995,190.731,58.334,13.293
2017-10-23T16:49:40,42.805,6.029,4330,1995,190.498,58.262,13.292
2017-10-23T16:52:40,42.805,6.029,4330,1995,190.018,58.115,13.291
2017-10-23T16:55:40,42.805,6.029,4330,1995,189.083,57.830,13.292
2017-10-23T16:58:40,42.805,6.029,4330,1995,188.521,57.661,13.294
2017-10-23T17:01:40,42.805,6.029,4330,1995,188.789,57.741,13.293
2017-10-23T17:04:40,42.805,6.029,4330,1995,188.877,57.766,13.292
2017-10-23T17:07:40,42.805,6.029,4330,1995,188.844,57.755,13.291
2017-10-23T17:10:40,42.805,6.029,4330,1995,188.647,57.694,13.290
2017-10-23T17:13:40,42.805,6.029,4330,1995,188.480,57.643,13.291
2017-10-23T17:16:40,42.805,6.029,4330,1995,188.756,57.728,13.291
2017-10-23T17:19:40,42.805,6.029,4330,1995,189.473,57.947,13.291
2017-10-23T17:22:40,42.805,6.029,4330,1995,189.805,58.049,13.291
2017-10-23T17:25:40,42.805,6.029,4330,1995,190.235,58.181,13.292
2017-10-23T17:28:40,42.805,6.029,4330,1995,190.229,58.178,13.290
2017-10-23T17:31:40,42.805,6.029,4330,1995,189.606,57.987,13.290
2017-10-23T17:34:40,42.805,6.029,4330,1995,189.307,57.895,13.290
2017-10-23T17:37:40,42.805,6.029,4330,1995,189.062,57.820,13.290
2017-10-23T17:40:40,42.805,6.029,4330,1995,188.848,57.755,13.290
2017-10-23T17:43:40,42.805,6.029,4330,1995,188.717,57.715,13.290
2017-10-23T17:46:40,42.805,6.029,4330,1995,188.469,57.639,13.290
2017-10-23T17:49:40,42.805,6.029,4330,1995,188.287,57.583,13.290
2017-10-23T17:52:40,42.805,6.029,4330,1995,188.381,57.613,13.291
2017-10-23T17:55:40,42.805,6.029,4330,1995,188.363,57.607,13.290
2017-10-23T17:58:40,42.805,6.029,4330,1995,188.680,57.703,13.290
2017-10-23T18:01:40,42.805,6.029,4330,1995,189.132,57.840,13.289
2017-10-23T18:04:40,42.805,6.029,4330,1995,189.516,57.958,13.289
2017-10-23T18:07:40,42.805,6.029,4330,1995,189.556,57.970,13.289